Location: Palomar Mountain Lodge
(33.3110°N, 116.8495°W)
Time: 23:57:50
(UTC-07:00)

Cosmos 1500 Rocket - Pass Details

Date: 12 July 2018
Orbit: 602 x 632 km, 82.5° (Epoch: 24 September)

Event Time Altitude Azimuth Distance (km) Brightness Sun altitude
Exits shadow 21:10:40 18° 154° (SSE) 1,485 5.0 -13.5°
Maximum altitude 21:13:27 41° 92° (E) 874 3.9 -14.0°
Drops below altitude 10° 21:17:31 10° 22° (NNE) 1,953 6.3 -14.6°
Sets 21:19:49 0° 15° (NNE) 2,864 7.3 -15.0°
